#timestamp,LO_Frequency,Hit,StdDev 
1638244815.2,286047002.5,N
1638244835.0,286047002.4,N
1638244835.9,286047002.4,N
1638244855.8,286047002.3,N
1638244875.6,286047000.2,N
1638244895.4,286047000.1,N
1638244915.3,286047000.1,N
1638244935.1,286047000.0,N
1638244955.8,286047000.4,N
1638244975.7,286047000.1,N
1638244995.5,286046999.8,N
1638245015.4,286046999.8,N
1638245065.2,286047002.8,E
1638245075.2,286046998.6,N
1638245095.9,286046997.0,P
1638245115.7,286046996.6,P
1638245135.6,286046999.4,N
1638245155.4,286046999.1,N
1638245175.2,286046999.3,N
1638245195.1,286046996.9,N
1638245196.0,286046996.9,N
1638245215.8,286046999.5,N
1638245235.7,286046999.6,N
1638245255.5,286046999.2,N
1638245275.3,286046996.6,N
1638245295.2,286046996.5,N
1638245315.9,286046999.2,N
1638245335.7,286046999.1,N
1638245355.6,286046998.8,N
1638245375.4,286046999.2,N
1638245395.3,286046998.8,N
1638245415.1,286046998.8,N
1638245416.0,286046998.8,N
1638245435.8,286046999.4,N
1638245455.7,286046998.4,N
1638245475.5,286046998.9,N
1638245495.3,286046998.9,N
1638245515.2,286046998.9,N
1638245535.0,286046998.8,N
1638245535.9,286046998.8,N
1638245555.8,286046999.1,N
1638245575.6,286046999.0,N
1638245595.4,286046999.1,N
1638245615.3,286046999.2,N
1638245635.1,286046999.4,N
1638245655.8,286046998.8,N
1638245675.7,286046999.5,N
1638245695.5,286046999.0,N
1638245715.4,286046998.7,N
1638245735.2,286046999.5,N
1638245755.0,286046996.6,Y
1638245755.9,286046996.6,P
1638245775.8,286047000.9,N
1638245795.6,286046998.2,N
1638245815.4,286047001.2,N
1638245835.3,286047000.8,N
1638245855.1,286047000.5,N
1638245875.9,286047001.1,N
1638245895.7,286047001.0,N
1638245915.5,286047000.3,N
1638245935.4,286047000.8,N
1638245955.2,286047000.4,N
1638245975.0,286047000.8,N
1638245975.9,286047000.8,N
1638245995.8,286047000.5,N
1638246015.6,286047000.5,N
1638246035.5,286047000.7,N
1638246055.3,286047000.7,N
1638246075.1,286047000.4,N
1638246095.9,286047000.5,N
1638246115.7,286047000.4,N
1638246135.5,286047000.5,N
1638246155.4,286047000.4,N
1638246175.2,286047000.3,N
1638246195.1,286047000.8,N
1638246196.0,286047000.8,N
1638246215.8,286047000.3,N
1638246235.6,286047000.7,N
1638246255.5,286047000.3,N
1638246275.3,286047001.2,N
1638246295.1,286046998.1,N
1638246315.9,286047001.2,N
1638246335.7,286047001.1,N
1638246355.6,286047000.7,N
1638246375.4,286046998.6,N
1638246395.2,286046998.1,Y
1638246415.1,286046998.8,P
1638246416.0,286046998.8,N
1638246435.8,286046999.0,N
1638246455.6,286046998.2,N
1638246475.5,286046998.8,N
1638246495.3,286046998.6,N
1638246515.2,286046998.8,N
1638246535.9,286046998.2,N
1638246555.7,286046998.5,N
1638246575.6,286046998.3,N
1638246595.4,286046998.2,Y
1638246615.3,286046999.9,P
1638246635.1,286047000.0,N
1638246636.0,286047000.0,N
1638246655.8,286047002.7,Y
1638246675.7,286047002.2,P
1638246695.5,286047002.4,N
1638246715.3,286046999.7,N
1638246735.2,286046999.8,N
1638246755.0,286046999.7,N
1638246755.9,286046999.7,N
1638246775.8,286047002.8,N
1638246795.6,286047002.1,N
1638246815.4,286047001.9,N
1638246835.3,286047002.3,N
1638246855.1,286047002.4,N
1638246875.8,286047002.8,N
1638246895.7,286047002.6,N
1638246915.5,286047002.6,N
1638246935.4,286047002.4,N
1638246955.2,286047002.0,N
1638246975.0,286047002.7,N
1638246975.9,286047002.7,N
1638246995.8,286047002.3,N
1638247015.6,286047001.9,N
1638247035.4,286047002.4,N
1638247055.3,286047002.3,N
1638247075.1,286047002.6,N
1638247095.9,286047001.6,N
1638247115.7,286047002.6,N
1638247135.5,286047001.5,N
1638247155.4,286047001.8,N
1638247175.2,286047001.3,N
1638247195.0,286047001.3,N
1638247195.9,286047001.3,N
1638247215.8,286047001.8,N
1638247235.6,286047001.8,N
1638247255.5,286047001.8,N
1638247275.3,286047001.6,N
1638247295.1,286047001.6,N
1638247315.9,286047001.8,N
1638247335.7,286047001.7,Y
1638247355.5,286047000.2,P
1638247375.4,286047000.9,N
1638247395.2,286047001.0,N
1638247415.1,286047000.5,N
1638247416.0,286047000.5,N
1638247435.8,286047000.6,N
1638247455.6,286047000.1,N
1638247475.5,286047000.0,N
1638247495.3,286047000.3,N
1638247515.1,286046999.7,N
1638247535.9,286047000.1,N
1638247555.7,286047000.2,N
1638247575.6,286047000.0,N
1638247595.4,286047002.7,Y
1638247615.2,286046999.9,P
1638247635.1,286047000.3,N
1638247636.0,286047000.3,N
1638247655.8,286047000.3,N
1638247675.6,286047000.7,Y
1638247695.5,286046998.2,P
1638247715.3,286046998.7,N
1638247735.2,286047001.2,N
1638247755.9,286046998.4,N
1638247775.7,286046998.3,N
1638247795.6,286046998.3,N
1638247815.4,286046998.4,N
1638247835.2,286046998.8,N
1638247855.1,286046998.7,N
1638247856.0,286046998.7,N
1638247875.8,286047001.2,N
1638247895.7,286046998.6,N
1638247915.5,286046999.3,N
1638247935.3,286046998.8,N
1638247955.2,286046998.8,N
1638247975.9,286046998.8,N
1638247995.7,286046998.4,N
1638248015.6,286046998.6,N
1638248035.4,286046998.6,N
1638248055.2,286046998.6,N
1638248075.1,286046998.5,N
1638248076.0,286046998.5,N
1638248095.8,286046999.0,N
1638248115.7,286046998.3,N
1638248135.5,286046998.2,N
1638248155.3,286047001.2,N
1638248175.2,286047000.8,N
1638248195.0,286046998.1,N
1638248195.9,286046998.1,N
1638248215.7,286046998.7,N
1638248235.6,286046998.1,N
1638248255.4,286046998.2,N
1638248275.3,286046998.7,N
1638248295.1,286046998.1,N
1638248296.0,286046998.1,N
1638248315.8,286046998.5,N
1638248335.7,286046998.1,N
1638248355.5,286046998.6,N
1638248375.3,286046998.5,N
1638248395.2,286047001.2,N
